Location: Northam
(31.6525°S, 116.6655°E)
Time: 06:00:19
(UTC+08:00)

Hubble Space Telescope - Visible Passes

Search period start: 28 July 2021 00:00
Search period end: 07 August 2021 00:00
Orbit: 535 x 539 km, 28.5° (Epoch: 26 July)

Date Brightness Start Highest point End Pass type
(mag) Time Alt. Az. Time Alt. Az. Time Alt. Az.
28 Jul 3.3 04:48:26 14° NNE 04:48:38 14° NNE 04:50:53 10° ENE visible
28 Jul 2.1 06:25:30 10° NW 06:29:20 37° NNE 06:33:12 10° E visible
29 Jul 3.3 04:38:29 16° NE 04:38:29 16° NE 04:40:23 10° ENE visible
29 Jul 1.8 06:14:24 10° WNW 06:18:19 42° N 06:22:16 10° E visible
30 Jul 3.5 04:28:24 16° ENE 04:28:24 16° ENE 04:29:42 10° ENE visible
30 Jul 1.6 06:03:44 12° WNW 06:07:18 46° N 06:11:19 10° E visible
31 Jul 3.8 04:18:14 13° ENE 04:18:14 13° ENE 04:18:55 10° ENE visible
31 Jul 1.4 05:53:33 19° WNW 05:56:18 50° N 06:00:21 10° E visible
01 Aug 4.1 04:08:00 10° ENE 04:08:00 10° ENE 04:08:04 10° ENE visible
01 Aug 1.3 05:43:19 27° WNW 05:45:18 53° N 05:49:23 10° E visible
02 Aug 1.2 05:33:01 37° NW 05:34:18 55° N 05:38:23 10° E visible
03 Aug 1.1 05:22:40 49° NW 05:23:18 55° N 05:27:23 10° ENE visible
04 Aug 1.1 05:12:18 54° N 05:12:18 54° N 05:16:23 10° ENE visible
05 Aug 1.5 05:01:57 46° NNE 05:01:57 46° NNE 05:05:22 10° ENE visible
06 Aug 2.1 04:51:35 35° NE 04:51:35 35° NE 04:54:19 10° ENE visible
06 Aug 2.5 06:27:49 10° WNW 06:31:08 23° NNW 06:34:27 10° NNE visible
